Regional Weather Roundup
Issued by NWS

Home | Current Version | Previous Version | Graphics & Text | Print | Product List | Glossary On
Versions: 1 2 3 4 5 6 7 8 9 10 11 12 13 14 15 16 17 18 19 20 21 22 23 24 25 26 27 28 29 30 31 32 33 34 35 36 37 38 39 40 41 42 43 44 45 46 47 48 49 50
000
ASUS45 KTFX 230704
RWRMT
MONTANA HOURLY WEATHER ROUNDUP
NATIONAL WEATHER SERVICE GREAT FALLS MT
104 AM MDT WED APR 23 2014

NOTE: "FAIR" INDICATES FEW OR NO CLOUDS BELOW 12000 FEET WITH NO
SIGNIFICANT WEATHER AND/OR OBSTRUCTIONS TO VISIBILITY.

* THESE STATIONS ARE NOT UNDER NWS QUALITY CONTROL. THEY DO NOT
   REPORT WEATHER SUCH AS PRECIPITATION OR FOG.

MTZ001>007-043-230800-
WEST OF THE DIVIDE
CITY           SKY/WX    TMP DP  RH WIND       PRES   REMARKS
KALISPELL      CLOUDY    41  30  65 S10       29.71R
MISSOULA       CLOUDY    39  30  70 W8        29.78S WCI  33
BUTTE          LGT SNOW  32  28  85 NW17G24   29.68R WCI  21
MULLAN PASS    CLOUDY    25  21  85 VRB7      29.73S WCI  17
* ESSEX        N/A       36  34  92 NW1G6      N/A
* LINCOLN      N/A       33  31  92 SW4G20     N/A
* LOOKOUT PASS N/A       34  25  70 SE8        N/A   WCI  27
* POLSON       N/A       36  30  79 SE2G8      N/A
* SEELEY LAKE  N/A       36  32  85 NW3        N/A
* THOMP F APT  CLOUDY    33  33 100 SW3G10     N/A
* YAAK HILL    N/A       41  31  68 SE2G7      N/A
$$

MTZ008-052>055-230800-
SOUTHWEST MONTANA
CITY           SKY/WX    TMP DP  RH WIND       PRES   REMARKS
BOZEMAN        LGT RAIN  37  34  89 W14G28    29.64R WCI  28
DILLON         LGT RAIN  36  32  85 S6        29.65R WCI  31
W YELLOWSTONE  N/A       32  31  96 SE2        N/A
* THREE FORKS  CLOUDY    39 -24   6 W8         N/A   WCI  33
* BOULDER HILL N/A       35  23  62 E4G27      N/A
* MONIDA PASS  N/A       31  31 100 W8         N/A   WCI  24
* RAYNOLDS PAS N/A       32  14  47 SE14G19    N/A   WCI  22
* WHITEHALL    N/A       40  37  89 W6G14      N/A   WCI  36
* WISE RIVER   N/A       32  31  96 NW9G14     N/A   WCI  24
$$

MTZ009>010-012-014-046-048-049-054-230800-
EAST SLOPES AND CENTRAL MONTANA
CITY           SKY/WX    TMP DP  RH WIND       PRES   REMARKS
CUT BANK       CLOUDY    41  36  82 W20       29.52R
GREAT FALLS    LGT RAIN  43  43 100 SW6       29.57R
HELENA         CLOUDY    41  32  70 W17G24    29.64R
MALMSTROM AFB  LGT RAIN  43  41  93 S6        29.54S
* CONRAD       CLOUDY    43  39  86 N/A        N/A
* DEARBORN     N/A       43  35  73 S10        N/A
* EAST GLACIER N/A       36  29  76 W22G30     N/A   WCI  25
* MONARCH      N/A       34  31  89 W7         N/A   WCI  28
* PENDROY      N/A       42  31  65 W15G21     N/A
* ROGERS PASS  N/A       30  28  92 SE12G22    N/A   WCI  20
* SAINT MARY   N/A       38  29  70 S9G22      N/A   WCI  32
* SWEET GRASS  N/A       43  38  83 SW16       N/A
$$

MTZ011-013-016-021-035-040-045-047-050-051-230800-
NORTH CENTRAL MONTANA
CITY           SKY/WX    TMP DP  RH WIND       PRES   REMARKS
HAVRE          HVY RAIN  46  45  96 W10       29.48R VSB 3
LEWISTOWN      RAIN      41  39  93 NW14G21   29.51R
* CHESTER      N/A       44  40  86 NW20G30    N/A
* DENTON       N/A       43  40  89 NW19G26    N/A
* GEYSER       N/A       40  38  93 W17G24     N/A   WCI  31
* JUDITH GAP   N/A       40  40 100 N22G29     N/A   WCI  30
* LOMA         N/A       45  42  89 W12G19     N/A
$$

MTZ017>020-022>027-061-062-230800-
NORTHEAST MONTANA
CITY           SKY/WX    TMP DP  RH WIND       PRES   REMARKS
GLASGOW        MOCLDY    55  32  42 E29G36    29.38F
GLENDIVE       CLOUDY    55  30  39 E17G23    29.48R
JORDAN         MOCLDY    57  36  46 E14       29.33F
SIDNEY         CLOUDY    57  30  36 E21G29    29.52F
WOLF POINT     MOCLDY    55  30  39 E16       29.45F
* BEAVER HILL  N/A       52  31  45 E34G40     N/A
* CIRCLE       N/A       56  35  45 E23        N/A
* LINDSAY DVD  N/A       51  32  48 E15        N/A
* NAVAJO       N/A       52  31  45 E18G27     N/A
* SACO         N/A       58  32  37 E24G31     N/A
$$

MTZ028>042-056>058-230800-
SOUTHCENTRAL AND SOUTHEAST MONTANA
CITY           SKY/WX    TMP DP  RH WIND       PRES   REMARKS
BAKER          CLOUDY    54  34  47 E15       29.45F
BILLINGS       CLOUDY    54  43  67 NW35G43   29.38R
LIVINGSTON     CLOUDY    41 N/A N/A W25       29.55S
MILES CITY     CLOUDY    55  37  51 NE9       29.35F
* LAUREL APT   CLOUDY    55  36  49 W25G33     N/A
* ROUNDUP APT  CLOUDY    55  43  64 W10G20     N/A
* HYSHAM       N/A       64  37  37 SE9G17     N/A
* LAME DEER    N/A       58  40  51 S9         N/A
* REED POINT   N/A       47  36  66 W36G47     N/A
* ROSCOE HILL  N/A       47  35  63 NE4G11     N/A
$$

REGIONAL REPORTS...DAKOTAS
CITY           SKY/WX    TMP DP  RH WIND       PRES   REMARKS
WILLISTON      CLOUDY    54  32  43 E23G38    29.56F
DICKINSON      LGT RAIN  54  34  47 SE22G32   29.55F
CROSBY         CLEAR     50  34  54 E20G28    29.65F
TIOGA          CLEAR     48  32  54 E23G36    29.66F
WATFORD CITY   CLEAR     54  32  43 SE21G30   29.57S
BISMARCK       CLOUDY    52  43  72 SE22G31   29.70F
GRAND FORKS    PTCLDY    46  27  48 SE14      29.96F
FARGO          MOCLDY    48  28  46 SE13      29.95S
BUFFALO SD     CLOUDY    52  36  55 E16       29.40F
RAPID CITY     CLOUDY    57  45  64 S12       29.53F
$$

REGIONAL REPORTS...WYOMING/IDAHO/WASHINGTON
CITY           SKY/WX    TMP DP  RH WIND       PRES   REMARKS
GILLETTE       MOCLDY    52  43  72 S15       29.45F
SHERIDAN       CLOUDY    61  39  44 SE8       29.36F
CODY           CLOUDY    54  34  47 W15G28    29.46R
YELLOWSTONE LA CLOUDY    30  27  89 VRB3      29.71R
SALMON         CLOUDY    37  25  62 N13G18    29.80R WCI  29
MULLAN PASS    CLOUDY    25  21  85 VRB7      29.73S WCI  17
SPOKANE        CLEAR     36  25  64 SW8       29.81R WCI  30

$$




USA.gov is the U.S. government's official web portal to all federal, state and local government web resources and services.